Weather History for Farmingdale, NY

Change the Weather History Date:

Sunday, October 13, 2013

  Actual Average Record
Temperature  
Mean Temperature 58 °F -  
Max Temperature 64 °F 62 °F 73 °F (2000)
Min Temperature 52 °F 47 °F 34 °F (2012)
Degree Days  
Heating Degree Days 6    
Growing Degree Days 8 (Base 50)    
Moisture  
Dew Point 48 °F    
Average Humidity 70    
Maximum Humidity 83    
Minimum Humidity 56    
Precipitation  
Precipitation 0.00 in - - ()
Sea Level Pressure  
Sea Level Pressure 30.36 in    
Wind  
Wind Speed 10 mph (ENE)    
Max Wind Speed 16 mph    
Max Gust Speed 25 mph    
Visibility 10 miles    
Events      
Averages and records for this station are not official NWS values.
T = Trace of Precipitation, MM = Missing Value Source: NWS Daily Summary

Daily Weather History Graph

Daily Weather History Graph

Search for Another Location

Airport:

Trip Planner

Search our weather history database for the weather conditions in past years. The results will help you decide how hot, cold, wet, or windy it might be!

Date:

Astronomy

Oct. 13, 2013 Rise Set
Actual Time 7:02 AM EDT 6:16 PM EDT
Civil Twilight 6:35 AM EDT 6:43 PM EDT
Nautical Twilight 6:03 AM EDT 7:15 PM EDT
Astronomical Twilight 5:31 AM EDT 7:46 PM EDT
Moon 3:07 PM EDT (10/13) 1:07 AM EDT (10/13)
Length of Visible Light 12h 08m
Length of Day
11h 13m
Waxing Gibbous, 69% of the Moon is Illuminated
Oct 13
Waxing Gibbous
Oct 18
Full
Oct 26
Last Quarter
Nov 3
New
Nov 10
First Quarter

Hourly Weather History & Observations

Time (EDT) Temp. Dew Point Humidity Pressure Visibility Wind Dir Wind Speed Gust Speed Precip Events Conditions
12:53 AM 57.9 °F 51.1 °F 78% 30.28 in 10.0 mi ENE 12.7 mph 18.4 mph N/A   Mostly Cloudy
1:53 AM 57.0 °F 50.0 °F 77% 30.29 in 10.0 mi ENE 10.4 mph - N/A   Partly Cloudy
2:53 AM 55.9 °F 50.0 °F 80% 30.29 in 10.0 mi NE 9.2 mph - N/A   Overcast
3:53 AM 55.9 °F 50.0 °F 80% 30.29 in 10.0 mi NE 9.2 mph - N/A   Clear
4:53 AM 55.0 °F 50.0 °F 83% 30.30 in 10.0 mi NE 9.2 mph - N/A   Scattered Clouds
5:53 AM 54.0 °F 48.9 °F 83% 30.32 in 10.0 mi ENE 8.1 mph - N/A   Partly Cloudy
6:53 AM 54.0 °F 48.0 °F 80% 30.34 in 10.0 mi ENE 8.1 mph - N/A   Clear
7:53 AM 55.0 °F 48.0 °F 77% 30.35 in 10.0 mi ENE 13.8 mph 20.7 mph N/A   Clear
8:43 AM 57.2 °F 48.2 °F 72% 30.36 in 10.0 mi ENE 13.8 mph 19.6 mph N/A   Mostly Cloudy
8:46 AM 57.2 °F 48.2 °F 72% 30.36 in 10.0 mi NE 8.1 mph 19.6 mph N/A   Mostly Cloudy
8:48 AM 57.2 °F 48.2 °F 72% 30.36 in 10.0 mi NE 10.4 mph 19.6 mph N/A   Mostly Cloudy
8:53 AM 57.9 °F 48.9 °F 72% 30.37 in 10.0 mi NE 10.4 mph 18.4 mph N/A   Mostly Cloudy
9:53 AM 59.0 °F 48.9 °F 69% 30.37 in 10.0 mi ENE 13.8 mph 23.0 mph N/A   Scattered Clouds
10:15 AM 60.8 °F 48.2 °F 63% 30.37 in 10.0 mi NE 13.8 mph 20.7 mph N/A   Mostly Cloudy
10:17 AM 60.8 °F 48.2 °F 63% 30.37 in 10.0 mi East 12.7 mph 20.7 mph N/A   Mostly Cloudy
10:26 AM 60.8 °F 48.2 °F 63% 30.37 in 10.0 mi East 16.1 mph 25.3 mph N/A   Scattered Clouds
10:36 AM 60.8 °F 48.2 °F 63% 30.38 in 10.0 mi ENE 15.0 mph 20.7 mph N/A   Partly Cloudy
10:53 AM 61.0 °F 48.9 °F 64% 30.38 in 10.0 mi ENE 11.5 mph 23.0 mph N/A   Scattered Clouds
11:53 AM 63.0 °F 48.9 °F 60% 30.39 in 10.0 mi ENE 11.5 mph 17.3 mph N/A   Partly Cloudy
12:17 PM 62.6 °F 48.2 °F 59% 30.38 in 10.0 mi ENE 12.7 mph - N/A   Mostly Cloudy
12:53 PM 64.9 °F 50.0 °F 58% 30.38 in 10.0 mi NE 12.7 mph 18.4 mph N/A   Mostly Cloudy
1:53 PM 63.0 °F 48.9 °F 60% 30.37 in 10.0 mi ENE 10.4 mph - N/A   Mostly Cloudy
2:53 PM 63.0 °F 48.9 °F 60% 30.36 in 10.0 mi East 10.4 mph - N/A   Mostly Cloudy
3:53 PM 63.0 °F 48.0 °F 58% 30.35 in 10.0 mi ENE 9.2 mph - N/A   Partly Cloudy
4:53 PM 62.1 °F 46.0 °F 56% 30.35 in 10.0 mi ENE 8.1 mph - N/A   Clear
5:53 PM 59.0 °F 48.0 °F 67% 30.35 in 10.0 mi ENE 8.1 mph - N/A   Mostly Cloudy
6:07 PM 59.0 °F 48.2 °F 67% 30.35 in 10.0 mi ENE 10.4 mph - N/A   Mostly Cloudy
6:53 PM 57.9 °F 46.9 °F 67% 30.36 in 10.0 mi ENE 5.8 mph - N/A   Mostly Cloudy
7:02 PM 57.2 °F 46.4 °F 67% 30.36 in 10.0 mi ENE 5.8 mph - N/A   Scattered Clouds
7:53 PM 55.0 °F 46.9 °F 74% 30.37 in 10.0 mi ENE 3.5 mph - N/A   Clear
8:48 PM 53.6 °F 46.4 °F 77% 30.38 in 10.0 mi NE 4.6 mph - N/A   Mostly Cloudy
8:53 PM 53.1 °F 46.9 °F 80% 30.38 in 10.0 mi NE 4.6 mph - N/A   Mostly Cloudy
9:53 PM 54.0 °F 46.9 °F 77% 30.38 in 10.0 mi ENE 4.6 mph - N/A   Mostly Cloudy
10:07 PM 53.6 °F 46.4 °F 77% 30.39 in 10.0 mi ENE 4.6 mph - N/A   Scattered Clouds
10:53 PM 54.0 °F 46.9 °F 77% 30.38 in 10.0 mi East 8.1 mph - N/A   Clear
11:53 PM 52.0 °F 46.0 °F 80% 30.38 in 10.0 mi ENE 4.6 mph - N/A   Clear